• In Hungary
  • List of Countries
  • For 7 days
  • Water Temperature
  • Satellite Maps
  • Weather Map
  • News
  • Weather Widgets
  • user-avatar
    Login

    Hourly Weather Klenovyy

    Today, 19 September, Wednesday

    Time Temperature Precipitation Wind Pressure Humidity
    00:00 +14°C° 0 mm 3 mps 743 mmHg 73%
    01:00 +14°C° 0 mm 4 mps 743 mmHg 76%
    02:00 +13°C° 0.1 mm 4 mps 743 mmHg 80%
    03:00 +13°C° 0.1 mm 5 mps 743 mmHg 83%
    04:00 +13°C° 0 mm 5 mps 743 mmHg 86%
    05:00 +11°C° 0.1 mm 6 mps 743 mmHg 84%
    06:00 +10°C° 0.1 mm 6 mps 743 mmHg 81%
    07:00 +10°C° 0.1 mm 6 mps 743 mmHg 79%
    08:00 +11°C° 0 mm 6 mps 743 mmHg 75%
    09:00 +12°C° 0 mm 7 mps 743 mmHg 71%
    10:00 +12°C° 0 mm 7 mps 743 mmHg 68%
    11:00 +12°C° 0.1 mm 7 mps 743 mmHg 67%
    12:00 +14°C° 0.1 mm 7 mps 744 mmHg 66%
    13:00 +14°C° 0.1 mm 7 mps 744 mmHg 65%
    14:00 +12°C° 0.2 mm 7 mps 744 mmHg 64%
    15:00 +12°C° 0.2 mm 8 mps 744 mmHg 64%
    16:00 +12°C° 0 mm 8 mps 744 mmHg 63%
    17:00 +11°C° 0.1 mm 8 mps 744 mmHg 67%
    18:00 +11°C° 0.1 mm 7 mps 745 mmHg 71%
    19:00 +10°C° 0.1 mm 7 mps 745 mmHg 75%
    20:00 +10°C° 0.1 mm 6 mps 745 mmHg 77%
    21:00 +10°C° 0.1 mm 6 mps 746 mmHg 78%
    22:00 +10°C° 0.1 mm 6 mps 746 mmHg 80%
    23:00 +9°C° 0 mm 6 mps 746 mmHg 81%

    Tomorrow, 20 September, Thursday

    Time Temperature Precipitation Wind Pressure Humidity
    00:00 +9°C° 0 mm 6 mps 746 mmHg 82%
    01:00 +8°C° 0 mm 5 mps 746 mmHg 84%
    02:00 +8°C° 0 mm 5 mps 746 mmHg 85%
    03:00 +7°C° 0 mm 5 mps 746 mmHg 86%
    04:00 +7°C° 0 mm 5 mps 746 mmHg 88%
    05:00 +7°C° 0 mm 5 mps 747 mmHg 88%
    06:00 +6°C° 0 mm 5 mps 747 mmHg 89%
    07:00 +6°C° 0 mm 5 mps 747 mmHg 90%
    08:00 +7°C° 0 mm 5 mps 747 mmHg 81%
    09:00 +9°C° 0 mm 6 mps 748 mmHg 72%
    10:00 +11°C° 0 mm 6 mps 748 mmHg 64%
    11:00 +12°C° 0 mm 7 mps 748 mmHg 58%
    12:00 +14°C° 0 mm 7 mps 748 mmHg 52%
    13:00 +15°C° 0 mm 7 mps 748 mmHg 45%
    14:00 +15°C° 0 mm 7 mps 748 mmHg 44%
    15:00 +15°C° 0 mm 6 mps 748 mmHg 43%
    16:00 +16°C° 0 mm 6 mps 748 mmHg 42%
    17:00 +14°C° 0 mm 5 mps 748 mmHg 47%
    18:00 +13°C° 0 mm 4 mps 748 mmHg 53%
    19:00 +11°C° 0 mm 3 mps 749 mmHg 58%
    20:00 +11°C° 0 mm 3 mps 749 mmHg 62%
    21:00 +10°C° 0 mm 3 mps 749 mmHg 65%
    22:00 +9°C° 0 mm 3 mps 749 mmHg 69%
    23:00 +9°C° 0 mm 2 mps 749 mmHg 71%

    Day after tomorrow, 21 September, Friday

    Time Temperature Precipitation Wind Pressure Humidity
    00:00 +8°C° 0 mm 2 mps 749 mmHg 73%
    01:00 +8°C° 0 mm 2 mps 749 mmHg 75%
    02:00 +8°C° 0 mm 2 mps 749 mmHg 76%
    03:00 +7°C° 0 mm 2 mps 749 mmHg 78%
    04:00 +7°C° 0 mm 2 mps 750 mmHg 79%
    05:00 +7°C° 0 mm 2 mps 750 mmHg 78%
    06:00 +7°C° 0 mm 2 mps 750 mmHg 78%
    07:00 +7°C° 0 mm 2 mps 750 mmHg 78%
    08:00 +9°C° 0 mm 2 mps 750 mmHg 69%
    09:00 +12°C° 0 mm 3 mps 751 mmHg 61%
    10:00 +14°C° 0 mm 4 mps 751 mmHg 53%
    11:00 +15°C° 0 mm 4 mps 751 mmHg 48%
    12:00 +17°C° 0 mm 4 mps 751 mmHg 44%
    13:00 +17°C° 0 mm 5 mps 751 mmHg 40%
    14:00 +17°C° 0 mm 5 mps 752 mmHg 40%
    15:00 +17°C° 0 mm 5 mps 752 mmHg 40%
    16:00 +17°C° 0 mm 5 mps 752 mmHg 41%
    17:00 +15°C° 0 mm 4 mps 752 mmHg 47%
    18:00 +14°C° 0 mm 3 mps 753 mmHg 53%
    19:00 +12°C° 0 mm 3 mps 753 mmHg 59%
    20:00 +12°C° 0 mm 2 mps 754 mmHg 63%
    21:00 +12°C° 0 mm 2 mps 754 mmHg 66%
    22:00 +10°C° 0 mm 2 mps 754 mmHg 70%
    23:00 +9°C° 0 mm 2 mps 755 mmHg 72%

    22 September, Saturday

    Time Temperature Precipitation Wind Pressure Humidity
    00:00 +9°C° 0 mm 2 mps 755 mmHg 74%
    01:00 +9°C° 0 mm 2 mps 755 mmHg 77%
    02:00 +8°C° 0 mm 2 mps 755 mmHg 78%
    03:00 +8°C° 0 mm 2 mps 756 mmHg 80%
    04:00 +8°C° 0 mm 2 mps 756 mmHg 82%
    05:00 +9°C° 0 mm 1 mps 756 mmHg 82%
    06:00 +9°C° 0 mm 1 mps 757 mmHg 83%
    07:00 +9°C° 0 mm 1 mps 757 mmHg 83%
    08:00 +11°C° 0 mm 1 mps 757 mmHg 76%
    09:00 +13°C° 0 mm 2 mps 757 mmHg 69%
    10:00 +15°C° 0 mm 2 mps 757 mmHg 62%
    11:00 +17°C° 0 mm 2 mps 757 mmHg 59%
    12:00 +18°C° 0 mm 2 mps 757 mmHg 56%
    13:00 +19°C° 0 mm 3 mps 757 mmHg 53%
    14:00 +19°C° 0 mm 3 mps 757 mmHg 54%
    15:00 +20°C° 0 mm 2 mps 757 mmHg 55%
    16:00 +20°C° 0 mm 2 mps 757 mmHg 56%
    17:00 +18°C° 0 mm 2 mps 757 mmHg 62%
    18:00 +17°C° 0 mm 2 mps 757 mmHg 69%
    19:00 +16°C° 0 mm 1 mps 757 mmHg 75%
    20:00 +15°C° 0 mm 1 mps 757 mmHg 78%
    21:00 +15°C° 0 mm 1 mps 757 mmHg 81%
    22:00 +13°C° 0 mm 0 mps 757 mmHg 84%
    23:00 +13°C° 0 mm 0 mps 757 mmHg 85%

    23 September, Sunday

    Time Temperature Precipitation Wind Pressure Humidity
    00:00 +13°C° 0 mm 0 mps 757 mmHg 86%
    01:00 +12°C° 0 mm 0 mps 757 mmHg 86%
    02:00 +13°C° 0 mm 1 mps 757 mmHg 87%
    03:00 +13°C° 0 mm 1 mps 757 mmHg 88%
    04:00 +13°C° 0 mm 1 mps 757 mmHg 88%
    05:00 +13°C° 0 mm 1 mps 757 mmHg 88%
    06:00 +13°C° 0 mm 1 mps 757 mmHg 88%
    07:00 +13°C° 0 mm 1 mps 757 mmHg 88%
    08:00 +15°C° 0 mm 2 mps 757 mmHg 79%
    09:00 +17°C° 0 mm 2 mps 757 mmHg 71%
    10:00 +19°C° 0 mm 2 mps 757 mmHg 63%
    11:00 +20°C° 0 mm 3 mps 757 mmHg 58%
    12:00 +21°C° 0 mm 3 mps 756 mmHg 54%
    13:00 +22°C° 0 mm 3 mps 756 mmHg 49%
    14:00 +24°C° 0 mm 3 mps 756 mmHg 48%
    15:00 +24°C° 0 mm 3 mps 755 mmHg 46%
    16:00 +24°C° 0 mm 3 mps 755 mmHg 45%
    17:00 +22°C° 0 mm 3 mps 754 mmHg 48%
    18:00 +20°C° 0 mm 3 mps 754 mmHg 52%
    19:00 +18°C° 0 mm 2 mps 754 mmHg 55%
    20:00 +18°C° 0 mm 3 mps 754 mmHg 55%
    21:00 +17°C° 0 mm 3 mps 754 mmHg 54%
    22:00 +16°C° 0 mm 3 mps 753 mmHg 53%
    23:00 +16°C° 0 mm 3 mps 753 mmHg 50%

    24 September, Monday

    Time Temperature Precipitation Wind Pressure Humidity
    00:00 +16°C° 0 mm 3 mps 753 mmHg 48%
    01:00 +14°C° 0 mm 3 mps 752 mmHg 45%
    02:00 +14°C° 0 mm 3 mps 752 mmHg 44%
    03:00 +13°C° 0 mm 3 mps 752 mmHg 42%
    04:00 +13°C° 0 mm 4 mps 751 mmHg 41%
    05:00 +13°C° 0 mm 4 mps 751 mmHg 42%
    06:00 +13°C° 0 mm 4 mps 750 mmHg 43%
    07:00 +13°C° 0 mm 4 mps 750 mmHg 44%
    08:00 +15°C° 0 mm 6 mps 750 mmHg 41%
    09:00 +17°C° 0 mm 7 mps 749 mmHg 38%
    10:00 +21°C° 0 mm 8 mps 749 mmHg 35%
    11:00 +22°C° 0 mm 9 mps 748 mmHg 35%
    12:00 +23°C° 0 mm 9 mps 747 mmHg 34%
    13:00 +24°C° 0 mm 9 mps 747 mmHg 34%
    14:00 +22°C° 0.5 mm 9 mps 746 mmHg 44%
    15:00 +20°C° 0.5 mm 8 mps 746 mmHg 53%
    16:00 +17°C° 0.5 mm 7 mps 746 mmHg 63%
    17:00 +16°C° 1.3 mm 7 mps 746 mmHg 69%
    18:00 +14°C° 1.3 mm 7 mps 747 mmHg 75%
    19:00 +11°C° 1.3 mm 7 mps 747 mmHg 81%
    20:00 +10°C° 0.1 mm 7 mps 747 mmHg 80%
    21:00 +10°C° 0.1 mm 7 mps 747 mmHg 79%
    22:00 +10°C° 0.1 mm 6 mps 748 mmHg 78%
    23:00 +9°C° 0.2 mm 6 mps 748 mmHg 78%
    Show more